Location: Ciula Mare
(45.6000°N, 22.8167°E)
Time: 21:30:25
(UTC+00:00)

BREEZE-M DEB (TANK) - Pass Details

Date: 03 February 2023
Orbit: 283 x 16484 km, 49.4° (Epoch: 23 March)

Event Time Altitude Azimuth Distance (km) Brightness Sun altitude
Rises 15:47:01 0° 292° (WNW) 2,321 6.8 -2.4°
Reaches altitude 10° 15:48:19 10° 290° (WNW) 1,703 6.2 -2.6°
Maximum altitude 15:51:36 75° 204° (SSW) 883 4.0 -3.1°
Drops below altitude 10° 16:03:06 10° 122° (ESE) 5,647 7.6 -5.0°
Sets 16:11:43 0° 122° (ESE) 8,937 8.6 -6.5°
